Wind_Speed
19 19 17 18 14 8 11 15 16 17 20 21 20 16 10 11 9 12 8 9 9 8 8 9 10 9 8 7 10 15 20 23 25 26 31 35 37 37 38 41 43 44 46 47 47 48 48 48 50 51 51 51 52 53 53 53 52 53 53 53 54 53 53 53 52 51 49 46 43 42 43 45 47 48 48 48 48 48 47 46 45 45 44 43 42 41 40
16 20 19 19 18 12 9 12 15 16 18 22 22 19 14 13 12 10 8 10 10 8 8 10 10 10 10 10 10 12 16 22 26 26 27 29 32 34 37 41 43 45 46 46 47 48 47 47 48 49 50 51 52 53 53 53 54 54 54 54 54 54 54 54 53 51 50 48 46 45 45 46 47 49 49 49 49 49 48 47 46 46 45 45 43 42 41
9 17 21 19 19 17 12 10 13 15 16 18 19 18 15 12 11 8 8 10 9 6 6 8 9 9 8 6 5 9 15 19 23 27 29 31 34 38 42 45 47 47 47 46 46 46 46 45 46 47 48 50 51 53 53 54 54 54 54 55 55 56 55 54 53 52 51 50 49 48 47 47 48 49 50 50 50 51 50 48 47 46 46 45 44 43 42
6 10 19 22 20 17 14 12 13 14 14 14 14 13 12 10 9 8 7 8 7 6 7 8 9 8 9 7 6 9 13 15 16 22 27 31 36 41 44 46 46 46 46 46 46 46 46 44 44 45 47 49 51 53 54 55 55 55 55 56 56 56 55 53 53 52 52 52 51 50 49 48 48 49 50 51 51 51 51 49 48 46 46 45 44 43 41
6 10 14 20 18 13 13 14 12 11 9 10 11 11 12 12 10 8 8 8 7 7 8 8 9 7 7 9 9 11 15 17 17 20 26 29 33 37 41 43 44 44 46 46 47 47 45 43 43 45 47 50 52 53 55 55 55 55 55 56 56 56 54 53 53 52 52 53 52 51 50 49 49 50 51 52 52 52 51 49 47 46 45 44 43 42 41
6 13 13 14 16 12 11 8 10 13 11 10 9 7 9 11 8 6 7 8 8 8 9 9 10 8 8 14 16 14 16 22 24 24 25 27 30 33 36 39 42 44 45 46 46 46 44 42 42 44 47 50 52 53 54 55 54 55 56 56 56 56 55 54 53 52 52 53 53 51 50 50 50 51 52 52 52 51 50 48 47 46 45 43 42 41 40
6 10 9 11 13 11 8 3 7 13 13 12 9 2 2 5 7 5 3 2 5 5 5 8 10 8 7 5 2 3 1 13 24 27 25 24 26 31 35 37 40 43 44 44 44 44 45 44 44 46 48 50 51 53 53 53 53 54 55 56 56 56 56 55 54 53 53 53 52 51 50 50 51 51 52 52 51 50 49 48 47 45 43 42 41 40 39
5 5 4 9 8 5 3 1 3 6 8 10 9 5 5 4 3 3 5 5 5 3 1 5 10 15 18 16 17 17 10 3 10 19 26 28 27 30 33 34 36 38 42 44 44 45 47 47 47 48 49 50 52 53 53 53 53 54 54 55 56 56 57 56 55 54 54 53 52 51 50 50 50 50 51 51 50 49 48 46 45 44 41 40 39 39 38
3 3 5 5 4 2 2 1 1 3 5 9 9 5 3 6 5 2 7 8 6 5 4 1 6 13 16 13 15 17 16 11 5 8 19 28 33 35 36 37 36 36 40 44 46 46 47 48 49 50 50 51 53 53 53 52 52 53 54 55 56 56 57 57 56 55 54 53 52 51 50 50 50 50 49 49 49 48 46 46 45 43 40 39 39 38 37
1 3 5 3 3 4 3 2 2 4 6 8 10 8 1 6 6 2 5 7 5 6 5 3 2 6 8 4 6 15 20 17 10 5 8 17 26 30 33 36 38 38 42 47 48 49 48 48 50 49 49 51 53 53 52 52 52 53 54 56 57 57 58 58 58 56 54 53 52 50 50 50 49 49 48 47 47 46 45 45 43 41 39 39 39 37 36
2 3 5 4 4 3 4 8 6 1 6 9 11 8 1 5 6 4 4 7 6 6 7 6 4 6 5 1 5 10 16 17 14 9 2 7 14 17 20 25 30 33 37 41 45 49 49 48 48 48 47 48 49 50 49 49 51 53 55 57 57 58 58 59 58 57 55 53 52 51 50 50 49 48 47 46 45 44 43 43 41 39 39 39 38 37 35
4 4 5 4 3 2 10 13 14 14 5 8 11 4 3 5 5 4 7 8 6 6 9 9 8 5 4 4 4 9 12 13 15 12 8 4 4 8 11 18 24 28 30 30 34 42 47 49 49 49 47 46 46 47 47 48 51 53 55 56 57 57 58 58 58 57 56 54 53 52 51 50 49 48 46 45 44 44 44 43 40 39 39 38 37 36 34
5 5 5 3 2 3 12 15 17 20 11 5 7 4 6 3 1 7 11 10 8 10 11 10 7 4 4 4 4 9 10 10 12 13 11 9 7 4 3 8 15 21 25 27 28 31 36 42 45 46 47 47 46 46 46 48 51 53 54 55 55 56 57 58 57 56 55 55 54 53 52 51 49 48 47 47 46 45 44 42 40 39 39 38 37 35 34
3 4 4 4 1 4 17 25 24 16 5 4 5 4 5 6 8 12 15 13 13 18 19 16 13 10 8 8 9 11 11 10 11 11 9 8 7 6 4 2 7 11 15 21 27 29 31 35 40 42 45 49 50 49 49 50 51 52 52 54 56 58 58 58 57 56 55 55 55 53 53 52 51 50 49 48 48 47 45 42 40 40 40 39 37 35 33
2 3 3 2 2 7 22 26 17 11 7 3 3 7 9 12 15 17 17 16 16 20 22 20 17 14 12 12 12 12 12 11 11 10 8 7 6 4 4 2 3 6 8 13 21 30 33 35 37 38 40 43 46 47 48 49 50 52 54 55 56 57 57 57 57 56 55 55 55 55 55 54 52 51 51 50 49 47 44 42 41 41 41 40 38 35 33
1 1 2 1 3 10 19 15 5 5 11 7 6 13 11 13 17 20 19 17 17 20 21 20 18 17 15 14 13 12 13 13 12 10 9 7 6 4 4 3 1 2 4 6 10 18 26 30 32 33 34 37 40 41 41 42 42 44 49 54 55 55 55 56 56 55 54 54 55 55 55 54 53 53 52 51 50 47 45 43 43 42 41 39 36 34 32
1 2 3 4 5 10 17 15 10 12 17 15 14 18 18 16 16 19 21 18 17 20 20 20 20 19 17 15 14 14 15 14 13 12 11 10 8 7 5 3 2 2 2 3 4 7 13 21 27 29 31 34 37 39 40 40 38 36 37 44 50 53 54 55 55 55 54 53 53 55 55 54 55 54 53 51 49 47 45 43 42 41 39 36 34 33 31
1 2 5 7 7 11 18 21 21 21 23 21 16 17 22 22 21 23 24 22 21 21 21 22 22 20 17 16 15 15 15 14 13 13 12 12 11 11 9 8 6 5 3 4 5 4 7 14 21 24 28 30 32 34 36 36 37 35 31 34 42 49 52 55 55 54 53 51 50 50 50 50 50 51 51 51 48 44 42 39 38 38 36 34 32 30 27
1 2 2 4 7 9 15 22 25 26 25 22 19 18 19 22 25 27 26 25 25 24 23 25 24 21 19 18 17 16 15 15 16 15 14 14 13 13 13 12 11 9 7 6 6 6 7 10 15 19 24 27 30 33 35 34 34 31 24 24 34 42 45 48 49 48 48 49 47 47 47 49 50 49 47 44 41 38 36 34 34 35 34 32 30 27 23
2 2 3 9 9 8 17 23 23 24 24 21 19 18 19 22 26 26 25 25 25 24 24 25 24 23 21 20 19 18 17 17 17 17 16 15 14 13 13 12 11 10 10 8 7 8 8 9 13 17 22 27 30 33 35 35 36 34 28 25 30 33 34 38 42 44 46 49 50 51 50 49 48 45 41 37 35 33 32 32 35 35 32 29 27 24 21
3 1 5 10 9 8 16 22 22 22 21 19 17 18 20 23 25 26 26 26 24 25 25 23 22 24 24 22 21 21 20 20 20 20 19 18 16 15 13 11 9 8 8 6 6 7 7 9 13 16 19 23 27 30 31 33 36 37 34 32 36 36 34 36 42 46 49 52 53 52 49 44 41 40 37 33 31 31 32 32 32 28 24 22 21 19 17
0 0 4 7 5 3 9 15 18 19 19 18 17 18 19 22 24 25 27 27 27 26 25 23 22 25 26 24 23 23 23 24 23 23 22 21 18 16 14 12 9 6 5 5 5 4 5 7 11 14 16 19 21 23 27 30 34 35 36 39 45 48 45 44 47 50 52 53 51 47 44 43 40 38 34 30 29 30 31 28 23 17 14 13 13 14 14
1 2 5 8 4 2 5 10 14 16 16 17 18 18 18 19 23 25 26 27 28 27 26 25 24 26 26 24 24 25 26 25 25 24 24 24 22 20 18 15 11 8 7 6 5 3 2 5 8 12 14 16 18 19 21 24 28 34 39 41 42 45 47 48 51 53 51 49 45 40 39 39 37 35 33 31 29 28 25 20 17 14 12 11 11 12 14
3 4 6 7 4 0 4 9 14 16 16 16 16 16 15 16 21 25 26 26 26 25 24 24 23 24 25 24 24 25 25 25 24 24 24 25 24 23 21 19 17 14 11 9 9 9 8 5 1 4 6 9 12 16 20 26 30 35 41 42 40 41 40 38 40 43 41 39 38 36 36 36 35 35 37 36 31 25 20 17 17 17 17 16 17 16 16
4 7 8 7 4 5 6 10 14 16 14 12 13 14 14 13 18 23 24 24 23 22 21 21 20 19 20 21 22 22 22 23 23 22 23 24 24 24 23 22 21 18 15 11 9 10 10 10 10 11 11 10 11 14 20 28 31 30 29 28 27 28 27 24 25 27 27 29 33 36 37 38 38 37 37 34 29 25 22 21 21 21 22 22 21 20 20
5 9 9 6 8 11 9 10 12 14 13 11 11 13 14 13 15 18 20 20 20 19 18 18 17 15 15 16 17 17 18 19 19 19 21 24 24 24 23 22 21 19 16 12 9 7 8 8 9 12 11 10 13 14 16 23 28 22 15 12 12 16 21 23 25 28 30 32 36 38 38 37 35 32 28 25 24 23 24 26 27 26 25 24 23 22 21
5 6 8 9 10 10 10 10 11 13 13 12 12 14 15 14 14 15 17 17 16 15 15 15 15 14 14 14 14 14 15 16 17 19 22 23 23 22 21 20 20 20 19 17 14 9 6 7 9 9 7 8 12 13 11 14 20 19 14 11 12 18 24 25 28 33 36 36 37 35 32 29 26 24 22 21 21 22 24 28 30 30 27 25 23 21 20
2 4 9 9 9 10 11 11 11 13 13 13 14 15 15 13 12 14 15 15 14 14 13 13 13 13 13 13 13 13 14 15 17 20 22 22 21 19 18 18 20 22 23 23 20 16 13 12 12 10 9 10 13 14 14 14 17 20 21 20 22 27 30 29 30 33 33 31 29 27 24 23 22 21 21 21 21 22 25 28 30 30 28 24 22 20 19
4 7 11 13 14 13 12 11 12 13 13 12 13 13 14 14 14 14 15 14 13 13 13 12 12 13 13 13 12 13 14 16 17 18 18 18 18 17 16 17 19 22 25 26 23 20 17 15 16 16 14 13 14 14 13 14 17 22 25 26 28 31 31 29 28 27 25 22 22 21 21 22 22 21 20 20 21 24 27 29 29 27 25 23 22 21 21
10 16 20 21 20 16 13 13 15 15 14 13 13 12 13 14 16 16 15 14 14 14 14 13 12 12 12 13 12 13 14 14 14 14 15 15 15 14 13 11 14 19 24 25 24 23 20 17 19 21 19 18 18 16 13 12 14 17 19 21 22 24 24 23 23 22 21 20 20 19 20 21 21 20 20 21 23 25 26 27 27 25 23 22 22 22 22
14 19 20 20 20 17 15 16 17 17 15 14 13 12 13 14 15 15 14 14 14 14 15 14 14 14 13 13 13 13 12 12 12 12 14 14 15 14 12 10 13 18 21 22 23 23 22 20 20 20 18 16 17 16 15 16 18 17 17 18 19 19 20 20 20 20 19 19 19 19 20 21 20 20 20 22 24 25 25 25 26 25 23 22 22 21 20
19 20 19 19 19 17 14 14 15 16 16 14 13 13 14 15 15 14 13 12 11 11 11 12 13 14 13 13 14 14 13 13 12 12 13 14 16 16 15 13 14 15 15 17 20 22 21 20 19 18 16 15 14 14 16 21 21 17 15 15 15 16 18 18 17 17 16 16 17 19 20 21 20 20 20 21 23 24 24 24 25 24 23 22 21 19 18
20 20 18 17 18 18 16 13 12 13 12 12 11 11 12 13 13 12 11 10 9 9 9 9 11 12 12 12 14 16 16 17 16 14 14 14 14 14 14 14 14 13 13 13 15 18 20 19 16 14 13 14 14 13 15 18 18 14 12 11 11 13 15 15 14 14 13 12 14 17 19 20 20 18 18 19 20 20 21 22 23 23 23 22 20 18 17
19 18 15 15 18 21 21 18 16 15 14 13 11 10 10 11 11 11 11 9 8 9 10 10 10 11 12 13 14 15 16 17 18 17 16 15 14 13 12 11 12 13 13 12 11 12 16 16 14 12 11 11 12 12 12 13 14 13 11 9 9 11 13 13 14 14 13 12 14 17 19 21 20 19 18 18 16 16 18 20 20 21 21 20 19 18 18
17 16 15 16 18 21 20 19 18 19 18 16 15 13 12 11 11 12 12 11 10 9 9 9 7 7 9 12 13 14 14 16 17 16 15 15 16 15 13 12 11 10 9 10 10 11 12 13 13 11 9 8 8 9 10 11 12 12 12 12 12 12 12 13 14 13 12 12 14 17 18 20 20 19 17 17 16 14 16 19 20 20 19 19 20 20 20
16 16 15 14 16 19 19 19 19 20 20 18 17 15 14 13 13 13 13 12 12 12 12 12 11 10 11 13 14 14 15 16 17 17 17 17 17 16 15 16 15 13 11 10 9 8 8 9 10 9 8 7 6 6 6 7 8 9 11 15 16 15 15 15 14 12 12 13 14 16 20 21 20 19 19 19 19 17 16 19 21 19 17 17 19 20 21
19 19 19 18 19 21 21 20 20 20 19 18 17 16 16 16 15 15 14 14 15 15 14 14 14 14 14 14 14 14 15 16 17 18 19 18 17 16 18 20 19 19 19 17 12 7 5 4 4 5 5 5 4 4 3 4 6 7 9 13 15 16 18 19 17 14 15 15 14 18 23 24 22 21 22 22 22 21 19 20 20 18 16 17 18 18 19
21 21 20 21 22 22 21 20 20 20 20 20 19 18 17 17 17 17 18 19 18 16 15 14 14 14 14 14 15 16 16 16 16 16 17 16 15 17 21 23 22 21 20 17 13 11 9 6 4 4 4 3 3 2 2 2 5 8 8 10 14 17 19 20 19 18 18 17 17 22 26 25 23 24 24 23 23 23 22 20 20 19 18 17 16 16 17
21 21 21 21 21 22 21 21 21 21 22 22 22 21 20 19 19 20 21 22 21 20 19 19 19 18 17 16 16 17 17 17 17 17 17 17 18 20 23 24 21 19 17 14 13 13 13 10 8 6 6 5 3 2 3 4 7 11 11 12 15 18 18 19 20 20 20 20 21 23 22 21 22 25 25 23 23 24 23 21 20 19 18 16 15 15 15
23 22 23 23 22 23 23 22 22 22 22 22 22 22 21 20 20 20 21 21 20 21 22 23 24 25 24 21 19 19 19 19 19 19 19 19 20 22 24 22 19 17 14 13 12 13 12 12 13 13 12 10 7 4 3 1 7 11 11 9 10 12 14 14 14 15 16 17 17 18 20 23 25 25 25 24 23 23 23 22 21 19 17 16 15 14 13
24 23 23 23 23 23 23 23 23 22 22 23 22 22 21 21 21 21 21 20 20 21 22 23 25 27 27 26 24 22 21 20 20 21 21 21 22 23 24 22 20 17 15 13 12 11 10 11 13 14 14 13 11 10 9 6 2 6 8 9 10 11 12 12 11 13 15 16 16 18 22 25 25 22 21 19 18 18 19 19 18 17 15 15 14 13 11
23 23 23 23 23 22 23 23 23 23 23 23 23 22 21 21 22 22 22 22 21 22 22 23 23 24 25 25 24 24 23 23 22 22 22 22 22 23 23 22 20 19 18 15 13 11 11 12 14 14 14 12 12 12 13 13 12 8 2 5 8 10 11 11 12 15 17 18 19 19 17 15 15 15 14 13 14 16 17 16 15 15 14 12 12 12 11
21 21 21 22 22 22 22 21 21 20 20 20 20 21 22 23 22 21 21 21 21 20 20 21 23 23 23 22 23 25 26 26 25 24 23 22 22 22 22 22 21 21 20 19 16 13 12 13 16 17 15 12 10 11 13 14 14 12 9 5 2 3 5 7 9 13 14 14 15 15 10 7 10 14 13 13 15 16 15 14 14 14 13 11 11 11 11
20 21 21 23 24 25 25 25 24 23 22 20 18 18 19 22 22 21 21 21 21 20 20 20 22 22 22 22 23 24 24 24 25 25 25 25 25 24 22 21 22 22 22 22 21 18 15 12 13 15 16 14 13 12 13 13 12 10 9 8 7 5 4 4 5 7 7 7 9 11 9 7 9 13 14 15 17 17 15 13 13 12 13 13 12 11 11
25 25 26 26 27 28 28 28 28 28 26 24 21 19 18 19 21 22 22 22 22 23 23 23 23 23 23 23 23 23 22 21 21 21 22 23 24 22 20 19 20 22 23 22 22 22 20 16 12 11 12 14 14 13 13 13 11 9 7 8 8 7 7 6 4 4 5 5 5 8 9 9 11 14 16 17 17 15 14 12 11 11 12 13 12 11 12
27 27 27 28 28 29 28 28 27 27 27 27 26 24 23 23 23 24 24 24 23 23 23 23 23 23 23 22 22 22 21 22 22 20 19 19 18 16 15 16 18 19 19 20 20 20 19 18 14 11 9 10 11 12 12 11 10 8 7 7 7 6 6 5 4 2 2 3 4 5 6 8 10 11 13 14 13 12 12 11 11 11 12 12 12 13 15
26 26 27 26 26 26 26 26 26 27 28 27 26 25 24 23 24 23 22 22 22 21 21 21 21 21 19 18 18 18 18 19 20 20 19 17 16 15 15 15 15 14 13 14 15 15 14 14 14 13 11 9 8 9 10 9 8 7 8 8 7 6 4 4 3 2 2 1 0 1 3 4 4 5 7 8 9 9 11 12 13 13 12 11 12 13 13
25 26 26 25 24 23 23 23 25 27 27 25 24 23 21 21 21 20 19 18 18 19 19 19 18 17 16 16 16 15 14 14 18 20 18 15 15 16 16 15 14 12 10 11 12 11 10 10 10 11 11 10 9 9 8 8 7 7 9 9 9 7 5 4 4 3 3 3 3 3 2 3 5 5 5 6 8 10 11 13 14 13 12 11 10 9 9
25 25 24 23 24 24 24 25 26 26 25 23 23 22 20 20 20 20 19 17 16 16 17 17 16 16 15 15 15 15 13 13 16 18 17 15 14 15 15 14 14 13 12 11 11 10 9 9 9 9 9 9 9 10 9 8 7 7 8 9 10 9 8 7 5 4 3 3 3 4 4 5 6 7 7 7 9 9 9 9 9 9 9 10 9 9 9
24 24 25 25 24 25 26 26 26 25 23 22 21 19 18 18 19 20 20 18 15 13 14 14 14 14 13 13 13 12 12 11 12 13 13 14 14 14 14 14 14 14 13 12 12 11 10 10 10 10 10 9 8 9 9 10 9 8 7 7 7 7 8 8 7 5 3 3 3 3 3 5 6 6 5 5 4 4 4 6 7 8 9 9 10 10 10
24 25 26 25 23 22 23 23 23 22 21 21 20 18 17 16 15 15 16 16 14 12 11 12 14 14 13 12 12 12 11 11 11 11 11 12 13 13 14 14 15 15 14 14 14 14 14 13 12 11 11 10 9 8 8 8 7 7 6 5 4 4 4 5 5 5 5 4 3 2 2 3 4 4 4 4 4 4 5 6 7 8 9 10 10 10 10
26 26 26 25 25 23 22 21 20 19 20 20 20 19 18 17 15 13 13 13 12 10 9 10 13 15 14 12 12 12 12 12 12 12 11 11 11 11 12 13 14 15 15 15 15 14 15 15 15 14 12 12 11 9 8 7 6 6 5 5 4 4 4 3 3 2 3 4 4 4 4 4 4 4 4 5 4 4 4 5 6 8 8 9 9 10 10
Wind_Direction
224 205 207 212 206 194 198 205 204 195 197 202 205 212 188 146 188 231 208 182 205 229 243 239 232 237 247 237 223 220 216 206 196 195 197 198 202 204 202 203 204 205 208 208 207 210 211 209 209 209 210 211 211 212 213 212 212 212 212 213 213 214 215 217 219 221 223 224 225 226 227 228 227 227 227 227 228 230 231 233 234 235 236 237 237 238 240
242 215 208 211 215 210 198 209 208 198 197 200 207 213 194 176 205 215 178 192 217 221 223 234 238 237 248 255 234 214 219 213 194 186 189 194 199 201 202 205 206 208 210 208 207 210 211 209 209 209 210 211 211 212 213 212 212 212 212 212 214 214 216 219 221 221 222 224 225 226 226 227 228 227 227 228 228 229 231 233 234 234 235 235 237 239 240
263 224 210 208 217 213 203 211 210 204 205 202 207 214 202 195 216 205 174 200 230 246 238 239 243 233 235 251 202 187 214 218 199 190 191 194 197 201 205 208 208 209 209 207 206 210 212 212 211 212 214 214 214 214 213 212 213 212 211 213 214 216 219 221 221 221 222 223 224 225 226 227 228 228 228 228 228 229 231 232 234 234 233 234 236 238 240
298 244 215 209 215 217 212 214 209 203 206 206 208 208 197 194 202 193 188 211 233 248 244 247 249 226 209 207 171 171 205 216 207 196 193 196 199 201 204 207 207 207 205 203 205 210 213 214 214 216 218 217 215 214 213 213 213 211 211 213 215 218 220 221 220 221 222 223 223 225 226 227 227 228 228 228 228 229 230 231 233 233 233 234 236 238 240
301 288 243 212 208 219 225 221 205 190 199 215 217 210 202 194 179 173 198 215 222 216 205 219 237 225 210 212 191 174 187 200 208 203 196 199 203 202 204 205 204 204 203 202 206 211 214 216 218 220 221 218 217 217 216 214 212 210 211 214 216 218 220 220 222 223 223 222 223 225 226 227 227 227 227 228 228 229 229 230 231 232 233 235 237 239 241
278 300 280 219 201 216 230 214 175 173 186 198 203 215 219 213 204 203 212 211 211 210 193 197 216 217 213 219 213 195 185 188 193 195 196 200 203 204 205 206 205 204 204 204 208 212 215 217 219 221 221 221 221 221 218 214 210 210 212 214 216 218 219 220 222 223 223 223 224 225 227 227 226 226 227 228 228 228 228 228 229 231 234 235 238 240 243
266 299 282 213 202 215 231 208 158 174 183 175 162 129 301 241 233 228 219 204 211 224 217 201 200 184 168 190 221 31 189 198 190 187 190 197 203 205 205 206 207 206 205 208 211 214 216 217 218 218 219 221 222 220 217 213 211 212 213 214 216 217 218 220 222 223 224 224 225 226 226 225 225 226 227 227 227 227 227 228 229 232 234 236 238 240 242
260 292 256 217 220 221 207 69 96 140 158 153 129 65 360 313 273 166 127 125 146 136 125 199 174 143 119 85 53 43 34 296 219 203 201 203 207 208 205 205 209 210 211 211 212 213 216 217 218 219 219 220 221 219 217 215 214 214 214 215 216 217 218 219 221 223 224 224 225 225 224 224 224 225 226 226 226 226 227 228 231 233 235 237 238 239 241
239 280 269 242 250 253 151 112 60 121 156 164 141 115 307 312 336 128 138 129 125 110 86 243 179 141 116 76 37 32 35 28 345 253 224 215 211 209 205 203 205 209 213 213 212 214 217 218 220 221 220 220 219 218 216 215 216 215 215 216 217 218 219 220 221 223 224 224 224 224 223 224 224 225 225 226 226 226 228 229 231 233 234 235 237 238 239
307 303 277 238 205 219 223 248 229 141 139 148 127 110 290 306 339 356 135 121 108 103 75 352 245 126 94 55 354 8 22 33 33 345 262 226 214 209 209 209 210 211 212 213 214 216 219 220 221 222 221 219 218 217 216 216 216 216 216 217 219 219 220 221 221 222 224 224 224 223 223 223 224 224 224 225 226 228 229 231 232 232 232 233 235 236 237
348 318 268 241 181 203 312 338 344 54 136 128 99 75 332 287 321 346 97 105 98 106 93 63 65 86 81 200 283 349 21 42 48 37 352 220 214 214 214 214 216 217 217 219 222 223 222 222 224 224 222 220 218 217 218 219 218 217 218 219 221 222 223 224 222 222 223 224 224 223 223 224 224 223 223 225 226 228 229 231 231 231 230 231 232 233 234
342 323 279 262 132 33 334 338 331 315 301 115 99 90 236 265 318 19 88 96 95 113 109 88 72 78 133 193 297 1 34 57 59 62 76 111 198 224 220 214 216 218 218 221 227 228 227 227 227 226 224 223 222 223 223 222 219 219 221 222 224 226 226 225 223 221 221 223 223 223 223 223 222 222 223 224 225 226 226 227 228 229 228 228 227 228 228
326 313 291 281 131 22 341 331 317 310 308 114 121 194 211 216 24 80 89 91 94 93 90 86 85 98 126 131 50 36 46 58 63 70 78 89 103 114 168 211 221 223 221 220 222 225 227 228 227 227 226 225 227 229 228 224 222 224 227 227 227 228 226 224 222 222 221 222 223 223 222 220 220 221 222 223 223 223 222 222 223 224 223 223 222 223 224
316 300 294 296 227 19 350 332 322 329 342 165 172 172 146 114 90 84 82 82 83 80 78 82 93 100 92 78 65 56 53 53 56 60 68 85 99 95 85 177 220 228 229 226 223 224 226 227 227 227 226 226 228 230 229 228 230 231 230 228 227 226 224 223 222 222 222 221 220 219 219 218 217 218 219 221 221 220 218 218 218 218 219 219 218 219 222
334 302 317 341 261 332 344 336 334 12 17 259 172 107 96 88 84 82 80 83 87 87 85 84 84 83 75 65 59 54 53 54 52 53 59 69 84 85 65 72 209 220 225 226 227 228 228 227 228 227 225 225 227 228 228 231 234 234 231 228 227 224 222 222 222 221 221 220 218 217 216 215 215 216 217 217 216 216 214 213 213 214 215 216 218 220 221
76 286 323 26 254 311 340 343 322 343 343 338 103 105 88 78 87 90 86 85 92 96 93 85 79 74 64 56 48 42 42 41 38 38 40 41 50 61 58 60 81 222 230 235 242 240 237 235 234 232 229 226 226 227 228 231 234 233 230 227 224 222 221 221 221 220 219 218 216 214 214 212 211 212 213 211 210 211 210 210 211 212 212 215 218 219 219
162 164 256 280 297 330 355 4 348 348 10 34 82 105 100 91 96 102 99 97 98 99 96 88 79 72 65 58 50 43 40 33 27 23 18 13 11 6 3 12 21 5 299 285 293 273 253 246 243 241 238 232 229 229 229 231 233 234 233 230 225 222 221 221 219 218 216 214 213 212 212 209 207 208 208 206 204 204 205 207 210 211 212 214 216 216 216
234 182 232 271 317 350 9 17 17 21 34 41 51 79 93 97 100 103 105 106 103 101 102 97 86 77 74 71 62 54 48 41 33 23 13 6 356 342 334 332 331 334 326 301 291 284 263 248 243 242 242 239 237 235 236 237 234 230 233 236 230 224 221 220 218 215 211 206 204 202 200 198 197 198 198 197 196 197 200 206 211 213 213 211 211 212 214
297 162 179 304 324 351 14 22 25 26 33 41 45 56 77 93 100 101 102 104 104 101 101 98 91 85 83 81 75 68 62 55 47 40 30 20 8 353 342 336 330 322 311 292 272 266 261 247 240 239 237 236 237 238 240 242 238 229 229 236 232 224 218 212 207 202 196 191 188 186 185 185 186 188 189 192 195 199 204 210 213 212 210 209 208 208 208
281 170 58 354 335 5 30 33 31 26 28 38 48 55 70 84 93 100 101 101 103 100 97 98 96 88 83 82 79 76 71 65 58 51 44 36 28 18 2 344 330 318 312 302 279 264 253 243 242 240 234 231 234 236 238 240 237 231 227 223 216 210 202 194 187 182 179 180 180 180 179 181 186 190 192 195 202 210 214 214 212 209 207 208 209 208 206
296 258 30 360 345 9 26 31 37 37 37 44 51 61 74 80 84 92 95 95 98 98 96 98 97 89 82 79 79 77 73 68 63 56 51 48 42 36 24 6 343 322 315 313 290 265 246 237 240 240 238 234 234 236 240 241 239 235 226 214 207 201 191 182 177 174 175 177 177 176 177 180 186 192 195 198 206 214 213 209 209 210 210 211 214 213 213
13 324 7 357 348 342 1 22 45 50 47 49 52 60 73 81 83 88 91 92 93 94 94 95 94 90 83 78 79 78 73 69 65 60 57 54 48 44 40 31 14 350 343 349 330 283 250 245 244 245 246 243 240 243 245 244 242 233 217 206 204 201 193 184 180 176 174 173 174 175 179 183 186 188 190 194 201 204 201 197 201 207 210 214 218 214 207
223 289 335 338 331 321 1 35 65 69 61 57 55 54 62 78 89 93 94 93 92 90 90 90 91 90 86 82 82 80 75 73 70 66 62 59 55 52 50 48 45 38 34 38 38 26 305 268 260 257 255 250 247 246 236 222 216 207 193 183 181 179 175 173 175 174 171 170 171 174 179 183 185 183 181 181 185 190 192 193 194 190 184 184 188 187 182
264 284 319 320 300 285 57 69 83 85 79 74 75 74 72 78 89 93 92 91 91 90 89 88 88 89 88 86 84 81 78 76 73 70 67 63 61 61 61 63 63 57 56 72 85 86 86 83 128 226 227 222 223 222 207 190 180 175 171 165 158 156 158 160 163 168 170 169 170 174 178 180 181 180 177 175 176 179 183 184 180 173 166 163 161 159 159
247 271 292 284 225 169 128 109 106 104 102 97 96 99 95 88 91 94 93 89 88 87 87 86 85 87 88 87 84 81 79 76 73 71 69 64 62 63 64 68 70 66 64 76 99 114 115 106 109 124 131 145 171 189 194 187 174 160 157 159 156 158 164 163 160 168 175 173 171 174 177 177 177 178 179 179 178 177 173 169 168 166 162 157 151 147 148
266 271 270 235 175 160 152 135 122 119 122 122 110 101 96 91 91 95 95 93 91 89 85 84 82 82 82 84 84 82 80 77 73 69 65 62 62 62 61 65 70 71 73 80 94 127 156 158 144 135 135 151 166 172 181 183 177 168 167 174 174 178 184 179 172 175 180 176 172 173 175 175 175 178 181 183 185 183 178 172 168 166 164 159 153 149 146
292 251 217 190 164 163 165 148 129 127 131 129 117 104 96 90 90 95 98 98 97 96 93 90 88 85 82 83 86 88 88 84 75 68 64 62 63 65 67 70 72 73 75 77 75 80 118 151 153 153 168 185 183 186 194 190 183 179 174 165 167 176 177 173 168 169 170 169 168 168 170 172 175 179 180 182 185 188 186 179 172 169 169 167 162 157 155
317 202 190 168 137 138 149 147 140 136 132 125 119 113 108 104 99 97 98 99 98 100 102 102 102 100 95 93 96 97 95 89 78 70 68 66 66 70 75 77 76 75 75 75 71 72 86 102 110 123 155 174 174 180 187 181 169 161 153 151 160 166 166 165 164 164 164 165 166 167 170 173 175 175 176 179 183 186 184 179 173 171 171 170 166 166 167
93 142 155 143 124 120 128 136 135 130 123 119 117 114 112 112 105 94 90 92 95 96 97 98 103 105 104 105 107 103 97 91 82 76 74 72 71 75 78 79 81 80 77 72 66 63 71 85 91 95 112 131 137 143 150 151 148 148 151 159 165 164 162 165 167 165 165 167 168 170 172 171 169 169 171 175 180 182 179 176 174 173 172 171 173 176 175
107 121 123 122 117 110 106 110 111 108 106 108 108 105 102 102 97 89 85 84 86 87 88 88 90 93 94 97 99 96 92 89 85 82 81 78 78 81 85 89 87 79 71 66 59 55 57 69 81 87 94 106 113 114 119 128 135 141 152 162 164 160 161 166 165 162 161 160 160 165 169 168 167 167 167 171 178 181 179 177 176 175 174 175 179 181 180
112 119 114 112 113 110 103 100 97 95 95 96 98 99 98 95 93 93 91 87 85 86 85 81 79 78 75 73 74 75 78 81 83 83 81 80 82 84 89 94 86 74 64 59 56 56 56 62 73 80 86 98 112 121 131 141 142 140 149 161 161 156 156 157 154 151 151 151 155 164 168 168 168 167 167 171 177 180 181 181 181 181 180 181 183 186 189
103 105 102 107 115 117 113 107 100 97 95 94 92 89 84 83 89 94 93 89 89 87 82 78 77 76 71 66 64 64 66 72 77 80 79 79 81 83 88 92 90 83 73 60 55 55 57 60 69 78 88 104 122 137 151 157 154 144 140 148 151 148 147 146 145 145 147 150 157 163 166 168 170 172 175 177 178 178 181 185 188 189 189 190 193 196 198
94 92 93 103 113 112 106 102 102 102 100 96 93 86 77 75 79 82 79 75 74 75 78 82 82 79 77 74 70 66 66 68 71 72 72 72 74 79 85 91 95 95 87 69 58 57 59 59 63 72 87 106 125 139 151 156 152 142 137 143 147 147 146 145 145 144 142 145 153 158 162 165 169 172 177 180 181 182 185 189 193 194 194 196 200 203 201
94 99 102 106 109 109 105 100 102 108 109 102 95 90 85 81 78 75 70 63 60 67 77 82 81 80 81 78 71 66 66 67 69 71 72 71 69 68 70 81 94 98 93 83 74 70 67 65 65 67 70 84 106 123 137 143 142 145 152 157 157 156 154 153 155 153 149 149 156 159 160 162 162 164 169 173 177 184 191 195 197 196 193 194 197 199 199
105 116 117 108 103 103 100 97 98 103 105 102 97 91 90 91 89 87 82 71 61 63 70 72 74 81 82 77 71 67 67 66 66 70 78 81 78 70 63 65 76 87 92 92 91 84 73 67 69 73 71 70 84 104 121 133 142 153 163 167 169 170 168 166 166 165 161 161 165 170 172 170 167 168 172 174 176 182 190 195 195 192 189 190 192 193 194
110 120 122 113 104 99 95 94 96 98 97 97 96 93 90 89 89 91 89 79 73 76 79 80 86 90 86 81 76 72 72 75 77 82 88 90 86 78 70 65 64 65 69 75 79 81 76 65 59 63 69 68 71 84 105 130 149 165 177 179 178 180 181 179 176 176 178 178 177 180 182 181 178 177 181 186 189 188 186 186 185 182 180 183 186 188 193
100 106 109 106 101 97 94 93 94 94 93 92 92 92 90 87 85 85 84 78 75 77 78 79 83 85 84 81 77 75 77 83 87 90 92 93 90 83 75 69 65 64 65 63 59 60 74 69 39 40 53 59 63 72 91 141 172 187 194 193 193 195 192 185 180 180 186 191 192 188 186 187 188 187 187 192 197 194 185 181 183 184 182 184 187 191 196
89 94 98 98 95 94 94 94 95 94 93 91 89 89 89 89 89 88 85 81 78 78 77 76 79 80 80 79 80 81 84 86 87 87 87 85 81 74 68 63 60 59 62 63 63 63 62 50 21 19 32 35 25 4 338 261 220 218 217 209 207 205 198 191 189 191 192 196 202 199 193 191 192 191 189 192 197 196 191 189 190 188 184 183 186 191 193
90 90 92 92 91 90 90 90 90 90 89 87 86 85 86 88 91 91 87 83 81 81 80 79 77 76 76 78 82 83 82 82 82 82 80 78 76 72 68 65 61 60 61 65 69 71 69 65 60 58 57 54 49 3 325 284 240 229 221 211 208 208 203 200 203 204 201 202 206 206 202 200 200 197 194 193 195 195 194 192 189 184 182 182 185 188 191
94 91 89 87 86 85 84 82 82 84 83 81 80 80 80 82 85 86 83 81 79 79 78 76 74 73 73 76 81 83 81 80 80 78 77 76 76 74 71 67 63 61 61 62 63 67 70 74 78 77 72 70 74 73 44 290 232 221 209 201 203 204 203 204 202 196 198 208 214 210 204 200 196 190 185 183 186 188 189 187 185 185 188 190 189 190 192
89 88 88 87 84 83 82 81 81 81 80 77 76 76 74 74 76 77 78 79 79 77 74 72 71 72 73 74 77 79 79 77 74 71 69 68 68 68 68 65 58 53 53 56 59 61 63 67 72 71 66 64 64 64 60 61 145 195 197 200 199 193 197 205 195 182 188 200 198 189 187 187 183 178 175 176 179 182 184 183 183 185 187 189 191 195 198
84 85 85 84 81 80 79 78 76 76 74 72 72 72 71 71 74 77 79 80 79 76 75 74 73 72 71 70 71 73 72 71 69 67 64 62 61 60 62 61 55 49 47 49 54 60 65 66 63 58 54 55 56 56 54 52 51 56 103 210 210 201 203 209 198 187 187 187 180 177 181 183 181 183 184 181 181 185 187 183 180 181 183 187 195 200 201
80 79 77 76 75 76 76 74 71 71 70 69 69 70 71 72 75 79 82 82 80 80 81 80 77 74 73 71 72 74 73 71 69 68 66 64 60 57 57 58 56 51 48 48 49 55 67 71 65 59 58 63 64 59 54 52 50 53 61 71 111 187 196 191 186 189 193 194 194 198 202 194 187 188 182 171 172 181 185 182 181 184 188 193 199 202 201
73 72 72 73 74 75 75 72 69 68 67 66 67 69 70 71 75 81 84 83 79 80 83 82 79 78 79 78 76 76 73 68 65 64 64 63 60 56 54 56 57 55 53 50 49 51 56 60 57 57 60 66 68 66 62 59 55 53 54 56 57 63 74 90 131 168 184 197 204 199 184 173 185 189 180 174 179 187 189 190 190 192 194 198 201 203 201
75 74 75 75 74 73 72 70 68 67 65 64 66 69 70 72 78 84 85 83 79 80 81 81 81 82 85 84 82 79 75 68 63 59 57 57 55 51 49 52 57 57 55 52 51 51 50 47 43 48 56 61 65 71 74 71 65 56 45 39 38 40 43 51 73 123 147 165 183 177 168 179 196 191 179 177 185 191 195 200 203 202 202 204 205 204 198
78 76 76 75 72 70 70 71 69 67 64 62 65 70 76 81 85 86 84 84 83 81 79 79 80 82 85 87 87 85 80 74 69 64 61 61 61 57 54 57 61 61 57 53 52 51 49 48 47 50 53 55 60 68 73 76 77 72 61 50 42 42 51 61 63 76 135 176 199 201 203 215 218 204 192 194 200 205 212 218 217 210 206 202 197 194 192
75 74 74 73 72 71 71 71 69 66 64 63 64 66 70 76 81 82 83 84 85 83 81 81 82 81 81 82 82 82 79 75 70 67 64 64 66 64 59 61 66 69 66 60 56 52 49 49 51 52 51 50 56 63 67 70 71 67 64 63 60 61 79 98 91 67 64 95 139 218 207 207 208 205 207 212 214 213 212 206 194 183 175 170 169 172 176
72 71 71 72 72 70 70 68 64 61 61 63 64 64 64 66 68 69 70 74 78 79 81 82 83 82 80 78 75 71 67 66 67 67 63 60 62 62 60 60 65 69 68 62 56 47 39 38 42 45 46 47 50 54 59 61 57 53 58 66 68 66 71 88 87 65 50 37 22 22 73 148 161 166 170 172 172 174 178 178 175 172 174 178 182 187 193
69 67 67 68 67 64 63 61 59 58 59 62 65 67 68 68 65 60 57 59 66 71 73 73 73 73 73 72 71 67 62 62 67 69 65 58 56 55 54 54 57 59 57 56 54 44 29 21 21 25 29 36 43 45 44 41 38 41 56 72 78 76 78 87 93 81 59 49 46 54 81 127 152 158 157 158 161 165 172 181 189 196 203 208 212 218 222
61 57 56 57 57 58 58 57 56 55 56 57 59 63 67 70 68 63 57 56 60 62 59 58 61 62 60 60 63 63 61 61 65 66 61 55 53 51 48 50 55 56 55 55 53 46 33 23 22 22 20 20 26 31 31 28 26 29 44 64 75 74 75 87 103 112 105 86 74 75 100 140 161 172 186 196 198 202 213 216 215 217 222 225 227 230 235
53 50 49 50 51 54 56 56 55 53 52 49 49 52 56 58 61 59 55 56 60 59 50 49 56 59 58 57 59 58 54 52 52 50 49 49 50 49 47 47 48 49 49 49 48 44 38 34 33 31 26 20 18 19 20 19 15 10 10 19 28 33 44 65 88 111 128 137 138 127 129 143 154 169 197 220 232 242 243 237 233 232 234 235 237 242 249
54 52 51 50 49 50 51 50 48 47 45 42 39 39 38 39 41 42 43 49 62 68 62 62 67 66 62 62 65 61 54 48 46 46 47 48 46 42 41 41 39 39 39 39 39 39 37 33 30 28 27 24 21 17 13 11 11 6 359 354 347 337 335 346 9 51 112 143 162 174 182 189 193 192 190 194 202 219 237 244 242 237 235 236 240 246 253
Height
1362 1359 1361 1361 1364 1368 1368 1369 1372 1373 1375 1377 1381 1385 1386 1389 1397 1398 1392 1392 1395 1390 1384 1382 1378 1374 1373 1372 1372 1371 1370 1371 1373 1374 1376 1378 1381 1383 1386 1389 1391 1393 1395 1397 1400 1404 1407 1410 1414 1416 1419 1422 1425 1428 1431 1435 1438 1440 1444 1447 1448 1450 1452 1453 1455 1457 1460 1463 1466 1469 1472 1474 1477 1479 1481 1484 1486 1489 1491 1493 1494 1496 1498 1500 1502 1504 1507
1363 1357 1358 1356 1359 1364 1365 1365 1366 1367 1369 1371 1372 1376 1379 1381 1383 1384 1386 1388 1386 1383 1379 1376 1372 1370 1368 1367 1367 1368 1369 1369 1369 1371 1373 1375 1378 1382 1384 1386 1388 1390 1392 1394 1397 1400 1403 1406 1410 1413 1416 1418 1421 1424 1427 1430 1433 1435 1439 1442 1444 1445 1446 1446 1449 1453 1456 1458 1461 1464 1466 1469 1471 1474 1476 1479 1482 1484 1486 1488 1490 1492 1494 1497 1499 1501 1503
1369 1356 1353 1354 1356 1360 1363 1364 1362 1362 1366 1368 1370 1371 1373 1377 1380 1381 1384 1387 1384 1378 1373 1370 1368 1366 1365 1366 1366 1365 1365 1366 1366 1366 1367 1369 1373 1376 1379 1382 1384 1386 1388 1391 1395 1398 1400 1403 1406 1409 1412 1414 1416 1419 1422 1425 1428 1431 1434 1437 1439 1440 1441 1442 1445 1449 1451 1453 1456 1458 1460 1463 1466 1469 1472 1475 1477 1479 1481 1484 1486 1488 1491 1494 1496 1498 1500
1380 1360 1354 1354 1352 1356 1362 1363 1360 1360 1363 1366 1367 1367 1368 1373 1378 1380 1384 1387 1382 1375 1369 1367 1365 1364 1364 1364 1364 1364 1363 1364 1365 1364 1364 1366 1368 1370 1373 1376 1379 1382 1384 1388 1392 1395 1398 1401 1403 1406 1408 1410 1413 1415 1417 1420 1422 1426 1429 1431 1433 1435 1437 1440 1442 1444 1446 1449 1451 1453 1455 1458 1461 1464 1467 1470 1473 1475 1477 1480 1483 1485 1488 1490 1492 1495 1497
1388 1367 1358 1353 1354 1366 1367 1355 1352 1357 1359 1360 1362 1362 1362 1362 1367 1374 1378 1377 1372 1367 1365 1365 1363 1363 1364 1362 1361 1362 1362 1362 1364 1364 1364 1366 1367 1369 1371 1373 1375 1379 1381 1385 1388 1392 1395 1398 1400 1402 1404 1406 1408 1410 1412 1414 1418 1422 1424 1426 1428 1430 1433 1436 1438 1439 1442 1444 1446 1448 1450 1453 1456 1459 1463 1466 1468 1470 1474 1477 1480 1482 1484 1487 1489 1492 1494
1391 1373 1362 1357 1364 1373 1360 1339 1339 1347 1351 1355 1360 1362 1360 1357 1358 1361 1362 1361 1360 1359 1359 1361 1361 1360 1361 1359 1358 1359 1360 1360 1362 1363 1364 1366 1367 1369 1371 1373 1374 1376 1379 1383 1386 1389 1392 1395 1397 1399 1401 1403 1404 1405 1408 1411 1414 1417 1419 1421 1424 1426 1429 1432 1433 1435 1437 1439 1441 1443 1446 1449 1453 1456 1459 1461 1464 1468 1471 1475 1477 1479 1482 1484 1487 1488 1490
1389 1374 1368 1371 1371 1361 1343 1331 1332 1336 1340 1346 1354 1358 1357 1355 1354 1354 1356 1358 1357 1356 1355 1354 1355 1356 1358 1359 1359 1360 1361 1361 1361 1361 1362 1364 1366 1367 1369 1372 1373 1375 1378 1381 1384 1386 1389 1391 1393 1396 1398 1399 1402 1404 1406 1409 1411 1413 1414 1417 1419 1422 1425 1427 1430 1431 1433 1434 1437 1439 1443 1446 1449 1452 1455 1458 1462 1465 1469 1472 1474 1477 1480 1482 1484 1485 1487
1385 1378 1376 1375 1362 1343 1332 1331 1331 1332 1338 1344 1352 1362 1362 1355 1354 1355 1357 1358 1355 1353 1354 1351 1352 1355 1356 1358 1361 1361 1363 1363 1363 1362 1361 1361 1363 1365 1366 1368 1370 1373 1375 1377 1380 1382 1385 1388 1390 1391 1394 1396 1398 1401 1403 1405 1407 1409 1411 1413 1415 1417 1420 1422 1425 1427 1428 1431 1433 1436 1440 1443 1446 1449 1452 1455 1459 1463 1466 1469 1472 1475 1477 1479 1480 1482 1484
1382 1382 1376 1362 1352 1346 1339 1336 1333 1333 1338 1340 1347 1362 1366 1357 1354 1354 1355 1355 1353 1352 1353 1352 1352 1353 1354 1359 1363 1361 1361 1363 1362 1363 1362 1360 1361 1362 1363 1365 1367 1369 1372 1374 1376 1379 1381 1383 1385 1387 1390 1392 1394 1396 1399 1401 1403 1405 1407 1409 1410 1412 1414 1417 1420 1422 1424 1427 1430 1433 1437 1440 1443 1446 1449 1453 1457 1460 1464 1466 1468 1471 1473 1475 1476 1478 1481
1378 1384 1381 1366 1362 1360 1347 1339 1333 1327 1331 1332 1335 1354 1366 1359 1353 1353 1352 1353 1354 1351 1352 1353 1352 1351 1358 1367 1368 1364 1363 1363 1361 1361 1362 1361 1362 1363 1363 1365 1367 1368 1371 1372 1375 1377 1378 1379 1382 1384 1387 1389 1390 1392 1394 1396 1399 1401 1403 1404 1406 1408 1409 1411 1414 1417 1421 1424 1427 1431 1434 1437 1439 1443 1447 1451 1454 1457 1460 1462 1464 1467 1469 1471 1473 1475 1478
1381 1389 1388 1370 1363 1362 1353 1346 1337 1328 1330 1329 1332 1358 1375 1361 1352 1354 1352 1352 1354 1352 1351 1353 1352 1356 1366 1373 1370 1365 1365 1365 1363 1362 1361 1362 1364 1366 1366 1367 1369 1370 1371 1373 1374 1375 1376 1377 1380 1382 1385 1386 1388 1389 1390 1391 1394 1396 1397 1400 1402 1403 1405 1407 1410 1414 1418 1422 1425 1428 1431 1434 1437 1441 1445 1448 1452 1454 1457 1459 1461 1464 1466 1468 1470 1472 1475
1388 1393 1389 1366 1357 1365 1363 1353 1344 1335 1330 1326 1342 1375 1383 1361 1352 1355 1352 1352 1355 1353 1351 1352 1355 1361 1368 1370 1368 1365 1365 1366 1364 1363 1363 1362 1363 1364 1365 1367 1368 1368 1370 1371 1372 1372 1373 1375 1378 1380 1382 1383 1384 1385 1386 1388 1389 1390 1392 1395 1397 1399 1401 1404 1408 1412 1416 1419 1422 1425 1428 1431 1435 1439 1443 1446 1449 1451 1454 1456 1459 1462 1463 1466 1468 1470 1472
1393 1395 1390 1371 1364 1369 1364 1352 1344 1335 1328 1333 1356 1376 1369 1354 1354 1355 1351 1352 1354 1352 1351 1352 1357 1364 1366 1365 1365 1364 1363 1364 1363 1363 1364 1363 1363 1363 1363 1364 1364 1365 1367 1367 1368 1369 1370 1372 1374 1376 1378 1379 1380 1381 1383 1384 1384 1385 1388 1391 1393 1395 1398 1401 1405 1409 1413 1416 1419 1422 1426 1429 1434 1437 1440 1442 1445 1447 1450 1453 1457 1459 1462 1464 1466 1468 1469
1397 1395 1389 1381 1375 1369 1360 1352 1341 1331 1335 1349 1361 1362 1355 1353 1356 1354 1352 1354 1353 1353 1354 1355 1360 1364 1364 1364 1364 1363 1362 1362 1362 1362 1363 1363 1363 1363 1362 1362 1362 1363 1364 1365 1366 1367 1367 1369 1371 1372 1373 1374 1375 1377 1378 1379 1381 1382 1385 1387 1390 1392 1395 1398 1401 1404 1409 1412 1416 1420 1423 1426 1430 1434 1436 1439 1441 1443 1447 1451 1455 1458 1460 1462 1464 1466 1467
1398 1398 1395 1395 1391 1376 1364 1359 1349 1344 1353 1360 1356 1352 1353 1355 1355 1353 1354 1355 1354 1355 1357 1358 1361 1363 1362 1363 1363 1362 1362 1362 1361 1362 1362 1363 1363 1363 1363 1363 1363 1362 1363 1363 1363 1364 1365 1366 1367 1368 1370 1371 1372 1374 1374 1376 1378 1380 1382 1384 1388 1391 1393 1395 1397 1400 1404 1408 1411 1414 1417 1420 1425 1429 1432 1434 1437 1440 1444 1449 1452 1455 1457 1459 1461 1463 1465
1398 1405 1403 1400 1394 1382 1374 1372 1368 1364 1365 1361 1355 1354 1356 1357 1356 1356 1357 1357 1358 1358 1358 1360 1362 1362 1362 1362 1362 1361 1361 1361 1361 1362 1362 1363 1364 1364 1364 1364 1364 1363 1362 1361 1361 1363 1363 1364 1365 1366 1367 1369 1371 1372 1373 1375 1378 1380 1382 1383 1385 1388 1391 1392 1394 1396 1399 1402 1406 1409 1412 1416 1420 1425 1428 1430 1434 1438 1442 1446 1449 1451 1454 1456 1459 1461 1462
1393 1398 1395 1390 1388 1384 1379 1376 1373 1368 1363 1360 1360 1359 1357 1359 1361 1360 1359 1361 1362 1361 1361 1362 1363 1363 1363 1364 1363 1362 1362 1361 1361 1361 1361 1362 1362 1362 1363 1364 1363 1362 1361 1360 1361 1362 1362 1363 1364 1364 1366 1367 1369 1370 1371 1373 1376 1381 1384 1385 1385 1385 1387 1388 1390 1391 1394 1397 1401 1405 1409 1412 1416 1421 1424 1428 1432 1435 1438 1442 1446 1449 1451 1454 1456 1458 1459
1388 1389 1389 1387 1387 1385 1379 1375 1372 1369 1364 1362 1362 1361 1359 1361 1362 1361 1362 1364 1364 1364 1363 1363 1364 1366 1366 1365 1365 1365 1364 1364 1363 1363 1362 1362 1361 1360 1360 1360 1360 1360 1359 1359 1360 1360 1361 1362 1362 1362 1364 1365 1367 1369 1371 1372 1374 1377 1381 1385 1386 1385 1384 1384 1385 1387 1389 1393 1398 1403 1408 1412 1416 1420 1423 1426 1431 1435 1439 1443 1447 1448 1450 1452 1454 1456 1458
1388 1390 1390 1389 1387 1385 1380 1376 1372 1370 1368 1366 1366 1365 1364 1363 1362 1362 1363 1364 1364 1364 1364 1363 1365 1367 1367 1367 1367 1367 1366 1366 1365 1364 1363 1363 1362 1361 1360 1359 1358 1358 1357 1358 1359 1359 1359 1360 1360 1360 1361 1362 1364 1366 1368 1371 1374 1375 1377 1382 1385 1386 1384 1382 1383 1384 1385 1388 1393 1399 1404 1408 1413 1418 1424 1429 1435 1438 1441 1446 1448 1449 1449 1450 1452 1454 1456
1387 1387 1387 1387 1387 1385 1381 1377 1375 1373 1372 1371 1370 1370 1369 1367 1365 1364 1364 1364 1364 1364 1364 1365 1366 1368 1369 1369 1369 1368 1368 1368 1367 1366 1365 1364 1363 1362 1361 1359 1359 1358 1358 1358 1358 1358 1358 1358 1358 1359 1360 1360 1360 1361 1363 1366 1370 1371 1371 1375 1381 1386 1386 1383 1380 1381 1383 1385 1387 1392 1399 1406 1412 1419 1425 1432 1436 1438 1440 1444 1446 1447 1447 1449 1451 1453 1454
1387 1385 1385 1386 1386 1384 1381 1379 1377 1375 1374 1374 1375 1375 1373 1371 1369 1368 1367 1367 1366 1365 1366 1368 1367 1368 1370 1370 1369 1370 1370 1369 1369 1368 1367 1366 1365 1363 1362 1361 1360 1359 1359 1358 1358 1357 1357 1356 1357 1357 1357 1358 1359 1359 1361 1363 1364 1364 1363 1364 1371 1380 1386 1386 1382 1379 1379 1380 1383 1389 1399 1408 1414 1419 1423 1427 1432 1436 1440 1443 1445 1445 1446 1448 1450 1451 1452
1389 1388 1387 1388 1389 1389 1386 1382 1379 1378 1377 1377 1377 1377 1376 1374 1373 1372 1370 1370 1369 1368 1369 1370 1369 1369 1370 1371 1371 1371 1371 1370 1370 1370 1368 1367 1366 1364 1363 1362 1361 1360 1360 1359 1358 1357 1357 1356 1356 1356 1356 1356 1357 1357 1358 1359 1359 1358 1357 1359 1361 1364 1371 1379 1383 1379 1376 1377 1383 1390 1397 1404 1410 1415 1419 1423 1430 1436 1440 1442 1443 1445 1446 1447 1448 1449 1450
1387 1386 1386 1387 1389 1390 1388 1384 1380 1378 1378 1378 1377 1378 1380 1379 1377 1375 1374 1373 1373 1372 1372 1373 1372 1371 1371 1372 1372 1372 1372 1372 1372 1370 1369 1368 1367 1366 1365 1364 1362 1362 1361 1361 1359 1358 1358 1358 1358 1357 1356 1355 1354 1355 1355 1354 1354 1354 1355 1358 1359 1357 1360 1367 1374 1377 1376 1377 1381 1388 1394 1400 1405 1411 1416 1423 1430 1436 1438 1439 1440 1442 1443 1445 1447 1448 1449
1385 1385 1386 1387 1388 1389 1387 1385 1381 1378 1379 1381 1382 1383 1387 1387 1383 1379 1377 1376 1376 1376 1376 1376 1376 1374 1374 1374 1374 1374 1374 1374 1373 1372 1371 1370 1369 1368 1367 1366 1364 1363 1363 1362 1362 1360 1360 1360 1360 1359 1358 1356 1354 1353 1352 1352 1353 1353 1353 1356 1359 1361 1363 1365 1368 1373 1377 1377 1379 1385 1393 1399 1404 1409 1414 1421 1427 1431 1434 1436 1438 1440 1442 1444 1446 1447 1448
1384 1385 1385 1386 1388 1389 1387 1385 1383 1381 1383 1387 1389 1389 1390 1390 1386 1382 1380 1379 1380 1380 1380 1379 1379 1378 1377 1376 1376 1376 1377 1376 1375 1374 1372 1371 1370 1370 1369 1367 1366 1365 1364 1364 1363 1362 1362 1362 1361 1361 1361 1359 1358 1357 1354 1351 1352 1355 1358 1361 1363 1365 1367 1368 1368 1374 1381 1382 1382 1386 1393 1399 1404 1409 1414 1419 1422 1426 1430 1434 1437 1439 1441 1443 1445 1446 1447
1383 1383 1384 1386 1388 1389 1388 1386 1385 1384 1386 1389 1390 1388 1387 1387 1387 1384 1382 1381 1382 1382 1382 1381 1381 1381 1379 1378 1378 1379 1379 1378 1377 1375 1373 1372 1372 1371 1371 1370 1369 1367 1366 1365 1364 1362 1362 1362 1362 1363 1364 1365 1364 1362 1359 1355 1354 1358 1362 1365 1367 1369 1371 1371 1371 1376 1383 1385 1386 1390 1396 1401 1405 1410 1414 1418 1421 1424 1427 1431 1435 1438 1440 1442 1444 1445 1447
1381 1381 1383 1385 1386 1387 1387 1386 1385 1385 1385 1387 1387 1385 1383 1385 1387 1386 1384 1383 1383 1383 1383 1383 1382 1382 1381 1380 1380 1380 1380 1379 1378 1376 1375 1374 1373 1373 1374 1373 1371 1370 1368 1367 1366 1364 1364 1363 1362 1362 1365 1368 1367 1365 1364 1362 1361 1360 1361 1364 1369 1373 1374 1375 1375 1379 1384 1387 1390 1394 1399 1402 1406 1410 1414 1418 1421 1424 1426 1429 1432 1436 1438 1441 1443 1445 1446
1380 1379 1380 1382 1384 1386 1386 1386 1385 1384 1385 1385 1384 1383 1382 1385 1388 1388 1387 1386 1385 1385 1385 1384 1384 1383 1383 1382 1382 1382 1381 1380 1379 1377 1376 1376 1375 1375 1375 1374 1373 1371 1369 1368 1369 1368 1367 1366 1364 1363 1365 1369 1368 1367 1368 1368 1366 1365 1365 1367 1373 1376 1377 1379 1381 1385 1388 1391 1393 1397 1400 1403 1406 1410 1414 1417 1421 1424 1427 1429 1432 1434 1436 1439 1441 1444 1446
1379 1379 1379 1380 1383 1386 1388 1387 1386 1385 1385 1385 1384 1384 1384 1385 1387 1389 1389 1388 1388 1387 1387 1387 1386 1384 1383 1383 1383 1382 1382 1381 1380 1379 1378 1378 1377 1377 1376 1376 1375 1373 1371 1370 1370 1370 1369 1369 1368 1366 1367 1369 1370 1371 1371 1372 1372 1372 1373 1376 1378 1379 1380 1382 1385 1388 1391 1393 1395 1398 1400 1403 1406 1410 1414 1417 1421 1424 1427 1429 1432 1434 1436 1438 1441 1443 1446
1379 1379 1379 1379 1382 1387 1390 1389 1387 1387 1387 1386 1387 1387 1387 1387 1387 1389 1390 1391 1390 1390 1389 1388 1387 1386 1385 1384 1383 1383 1382 1381 1381 1380 1380 1379 1379 1378 1377 1377 1376 1374 1373 1372 1372 1372 1373 1372 1371 1369 1369 1370 1372 1373 1375 1376 1377 1378 1381 1384 1384 1384 1385 1387 1389 1391 1393 1394 1396 1399 1401 1404 1407 1410 1414 1417 1421 1424 1427 1429 1431 1433 1436 1438 1441 1443 1445
1379 1380 1381 1381 1383 1387 1391 1390 1389 1388 1388 1389 1390 1390 1389 1389 1389 1391 1392 1393 1392 1391 1391 1390 1388 1387 1386 1386 1385 1385 1384 1383 1383 1382 1382 1381 1380 1379 1378 1377 1376 1375 1375 1376 1376 1376 1375 1374 1373 1372 1371 1372 1373 1376 1379 1382 1382 1382 1384 1386 1387 1388 1389 1390 1391 1392 1394 1395 1397 1399 1402 1405 1408 1411 1414 1417 1420 1422 1425 1428 1431 1434 1436 1438 1440 1442 1444
1381 1381 1383 1384 1387 1390 1393 1392 1391 1390 1390 1391 1393 1393 1392 1391 1392 1393 1394 1394 1394 1393 1392 1391 1390 1389 1389 1388 1388 1387 1386 1385 1385 1384 1383 1383 1382 1380 1379 1378 1377 1377 1377 1377 1378 1378 1378 1377 1376 1376 1376 1376 1377 1380 1384 1387 1386 1385 1386 1388 1389 1390 1391 1392 1394 1395 1396 1397 1399 1401 1403 1406 1409 1412 1415 1418 1420 1423 1425 1428 1431 1433 1434 1436 1439 1441 1442
1382 1383 1386 1389 1391 1393 1393 1393 1392 1392 1392 1393 1394 1395 1395 1394 1395 1395 1396 1396 1395 1394 1393 1392 1392 1391 1391 1391 1390 1389 1389 1387 1386 1386 1385 1384 1383 1382 1381 1380 1379 1379 1379 1379 1380 1380 1381 1381 1381 1382 1382 1382 1382 1384 1388 1389 1389 1389 1390 1391 1392 1393 1394 1395 1397 1398 1400 1401 1403 1404 1407 1409 1412 1415 1418 1420 1423 1426 1428 1430 1432 1433 1433 1435 1438 1441 1442
1386 1388 1392 1394 1394 1393 1394 1394 1395 1394 1394 1395 1396 1397 1397 1397 1397 1397 1397 1397 1396 1395 1394 1394 1394 1393 1393 1393 1392 1391 1391 1389 1388 1387 1386 1386 1384 1384 1383 1382 1381 1381 1381 1381 1382 1383 1384 1385 1385 1386 1386 1386 1387 1388 1389 1390 1391 1391 1392 1394 1395 1396 1397 1398 1399 1400 1402 1403 1405 1406 1409 1411 1414 1417 1419 1422 1425 1428 1430 1431 1432 1432 1432 1434 1437 1439 1441
1392 1394 1396 1396 1395 1394 1395 1396 1396 1396 1396 1396 1397 1397 1397 1397 1397 1398 1398 1398 1397 1396 1395 1395 1395 1395 1394 1394 1393 1392 1392 1391 1390 1389 1388 1387 1387 1386 1386 1385 1384 1382 1382 1383 1384 1385 1386 1387 1388 1388 1388 1388 1389 1390 1390 1391 1392 1393 1394 1395 1397 1398 1399 1400 1401 1402 1403 1404 1405 1407 1409 1411 1414 1417 1420 1422 1425 1428 1430 1431 1431 1432 1432 1434 1435 1437 1440
1394 1395 1395 1395 1395 1395 1396 1396 1397 1397 1396 1397 1397 1397 1398 1398 1398 1398 1398 1398 1397 1397 1396 1396 1396 1396 1395 1395 1394 1394 1393 1393 1392 1391 1390 1390 1389 1389 1388 1387 1386 1384 1384 1384 1385 1387 1388 1389 1390 1391 1391 1391 1391 1392 1392 1393 1394 1395 1396 1397 1398 1399 1400 1401 1402 1404 1404 1404 1405 1407 1408 1411 1414 1416 1418 1420 1423 1426 1428 1429 1430 1431 1432 1434 1435 1436 1438
1395 1395 1395 1396 1396 1396 1397 1397 1398 1398 1397 1398 1398 1398 1399 1399 1399 1399 1399 1398 1398 1398 1398 1398 1398 1397 1397 1396 1395 1395 1395 1395 1394 1393 1393 1392 1392 1392 1390 1389 1388 1387 1386 1386 1387 1388 1389 1389 1391 1392 1393 1393 1393 1394 1395 1395 1396 1397 1398 1398 1399 1400 1401 1402 1403 1404 1405 1405 1406 1407 1408 1409 1411 1414 1415 1417 1420 1423 1426 1428 1429 1430 1432 1433 1434 1435 1437
1396 1396 1396 1397 1397 1398 1398 1399 1399 1399 1399 1399 1400 1400 1400 1400 1400 1400 1400 1400 1400 1400 1400 1400 1399 1399 1398 1397 1397 1397 1396 1396 1396 1396 1395 1394 1393 1392 1391 1390 1390 1390 1389 1390 1391 1391 1391 1391 1391 1393 1393 1394 1394 1394 1395 1396 1397 1397 1398 1399 1399 1400 1400 1402 1403 1403 1404 1406 1406 1406 1406 1408 1410 1411 1413 1416 1418 1421 1423 1425 1426 1429 1431 1432 1433 1435 1436
1399 1399 1399 1399 1400 1400 1400 1401 1401 1401 1401 1401 1401 1402 1402 1401 1401 1401 1401 1401 1401 1401 1401 1401 1400 1399 1399 1398 1398 1398 1398 1398 1398 1397 1397 1396 1394 1393 1392 1392 1393 1393 1393 1394 1394 1393 1393 1393 1393 1394 1394 1395 1394 1394 1395 1396 1396 1397 1397 1398 1398 1399 1400 1401 1402 1402 1404 1406 1406 1406 1408 1409 1410 1411 1412 1414 1417 1419 1421 1423 1425 1427 1429 1431 1432 1434 1435
1402 1402 1403 1403 1403 1403 1404 1404 1403 1404 1404 1404 1404 1404 1404 1403 1403 1402 1403 1403 1403 1403 1403 1403 1402 1401 1400 1400 1400 1400 1400 1400 1400 1399 1399 1398 1397 1395 1395 1395 1396 1397 1397 1397 1397 1396 1396 1396 1396 1395 1396 1396 1396 1395 1396 1396 1396 1397 1397 1397 1398 1399 1401 1402 1402 1403 1404 1404 1406 1408 1410 1409 1408 1409 1411 1413 1416 1418 1420 1422 1424 1426 1427 1429 1431 1433 1433
1405 1406 1406 1406 1407 1407 1407 1407 1407 1407 1407 1406 1406 1406 1406 1406 1405 1405 1405 1405 1406 1406 1405 1405 1404 1403 1403 1403 1403 1403 1403 1402 1401 1401 1401 1401 1400 1399 1399 1399 1400 1400 1400 1400 1400 1399 1399 1399 1398 1398 1398 1397 1397 1397 1397 1397 1398 1398 1398 1399 1399 1400 1401 1402 1402 1403 1402 1403 1406 1409 1410 1409 1407 1409 1411 1413 1416 1419 1421 1422 1424 1425 1427 1429 1430 1431 1432
1409 1410 1410 1410 1410 1410 1410 1410 1410 1410 1410 1409 1409 1409 1409 1409 1408 1408 1408 1408 1408 1408 1408 1408 1407 1406 1406 1406 1406 1405 1405 1405 1405 1404 1404 1404 1403 1403 1402 1403 1403 1403 1402 1402 1402 1402 1402 1401 1401 1401 1400 1400 1399 1399 1399 1398 1399 1399 1400 1401 1401 1402 1403 1403 1404 1404 1403 1403 1405 1408 1409 1409 1410 1411 1413 1414 1416 1419 1421 1422 1423 1425 1426 1427 1429 1429 1430
1414 1414 1413 1413 1413 1413 1413 1413 1413 1412 1412 1412 1412 1412 1412 1412 1412 1411 1411 1411 1411 1410 1410 1410 1410 1409 1409 1409 1409 1408 1408 1408 1408 1408 1407 1407 1406 1406 1406 1406 1406 1406 1405 1404 1404 1404 1404 1404 1404 1403 1403 1402 1402 1402 1401 1401 1401 1402 1402 1403 1403 1404 1404 1405 1406 1406 1406 1405 1405 1407 1408 1410 1412 1413 1414 1415 1417 1419 1420 1421 1422 1423 1424 1425 1426 1427 1428
1417 1417 1417 1417 1417 1417 1417 1416 1416 1415 1415 1415 1415 1415 1415 1414 1414 1414 1414 1414 1414 1413 1413 1413 1413 1412 1412 1412 1412 1412 1412 1412 1411 1411 1410 1409 1409 1409 1409 1409 1409 1408 1407 1407 1406 1407 1407 1407 1407 1406 1405 1404 1404 1404 1404 1404 1404 1405 1405 1405 1405 1405 1406 1406 1407 1407 1408 1408 1408 1408 1409 1410 1412 1413 1414 1415 1417 1419 1419 1420 1420 1421 1422 1423 1424 1425 1426
1420 1420 1420 1420 1420 1420 1420 1419 1419 1419 1418 1418 1417 1417 1417 1417 1417 1417 1417 1417 1417 1417 1416 1416 1416 1415 1415 1415 1415 1415 1415 1414 1414 1413 1412 1411 1411 1411 1412 1411 1410 1410 1409 1409 1408 1409 1409 1409 1409 1408 1407 1407 1406 1406 1406 1406 1406 1406 1407 1407 1407 1407 1407 1407 1408 1408 1409 1409 1410 1410 1410 1411 1412 1413 1414 1415 1417 1417 1417 1418 1418 1419 1420 1421 1422 1423 1424
1423 1423 1423 1423 1422 1422 1422 1422 1422 1421 1421 1420 1420 1420 1420 1420 1420 1420 1420 1420 1420 1420 1420 1420 1419 1419 1419 1418 1418 1417 1417 1416 1416 1415 1414 1414 1413 1413 1413 1412 1412 1411 1411 1410 1410 1410 1410 1410 1409 1409 1409 1408 1408 1408 1408 1408 1408 1408 1408 1409 1409 1409 1409 1409 1410 1410 1411 1411 1412 1412 1412 1412 1412 1413 1413 1414 1415 1415 1416 1416 1416 1417 1418 1420 1421 1422 1423
1427 1426 1426 1426 1425 1425 1425 1424 1424 1423 1423 1423 1423 1424 1424 1424 1424 1424 1423 1423 1423 1423 1422 1422 1422 1421 1421 1421 1420 1420 1419 1418 1417 1417 1417 1416 1415 1415 1414 1413 1413 1412 1411 1410 1410 1411 1411 1411 1411 1410 1410 1410 1409 1409 1409 1410 1410 1410 1410 1410 1410 1410 1411 1411 1411 1411 1412 1412 1412 1412 1412 1412 1412 1412 1413 1413 1414 1414 1414 1415 1416 1417 1418 1419 1421 1422 1424
1431 1430 1429 1429 1429 1428 1428 1427 1426 1427 1427 1428 1428 1427 1427 1427 1427 1426 1426 1426 1425 1425 1425 1424 1424 1423 1423 1423 1422 1422 1421 1419 1419 1419 1418 1417 1416 1416 1415 1414 1414 1413 1412 1412 1412 1412 1413 1412 1412 1411 1411 1410 1410 1410 1410 1411 1411 1411 1411 1411 1411 1412 1412 1412 1412 1412 1412 1412 1411 1411 1411 1411 1412 1412 1412 1413 1413 1414 1415 1415 1416 1417 1418 1420 1421 1423 1424
1434 1433 1433 1432 1431 1431 1431 1430 1430 1430 1431 1431 1430 1430 1430 1429 1428 1428 1428 1428 1427 1427 1427 1426 1426 1426 1425 1425 1424 1423 1422 1421 1420 1420 1420 1419 1417 1417 1416 1416 1415 1414 1413 1413 1413 1414 1414 1414 1413 1413 1412 1411 1411 1411 1411 1411 1411 1412 1412 1412 1412 1412 1412 1412 1412 1412 1412 1412 1411 1411 1411 1412 1412 1413 1413 1414 1414 1415 1415 1416 1417 1417 1419 1420 1421 1422 1423
1436 1436 1435 1435 1434 1434 1434 1433 1433 1433 1433 1432 1432 1432 1431 1430 1429 1429 1429 1429 1429 1428 1428 1428 1428 1428 1427 1427 1426 1425 1424 1423 1422 1422 1421 1421 1420 1419 1418 1417 1416 1416 1415 1415 1414 1415 1415 1414 1414 1413 1412 1412 1411 1411 1411 1411 1411 1412 1412 1412 1412 1412 1412 1412 1412 1412 1412 1412 1412 1412 1412 1412 1413 1413 1414 1414 1415 1415 1416 1416 1417 1417 1419 1419 1420 1421 1422
1439 1439 1438 1438 1438 1437 1437 1436 1436 1435 1434 1434 1433 1433 1432 1431 1431 1431 1430 1430 1430 1429 1429 1429 1429 1429 1428 1428 1427 1426 1426 1425 1424 1424 1423 1423 1422 1421 1420 1419 1418 1417 1417 1416 1416 1416 1416 1416 1415 1414 1414 1413 1412 1412 1412 1411 1411 1411 1412 1412 1412 1412 1412 1412 1412 1412 1412 1412 1412 1412 1412 1413 1413 1413 1414 1414 1414 1415 1415 1416 1417 1417 1418 1419 1419 1420 1420
1443 1442 1442 1441 1440 1440 1439 1439 1438 1438 1437 1436 1435 1435 1434 1433 1432 1431 1431 1430 1430 1430 1430 1430 1430 1430 1430 1429 1428 1428 1427 1426 1426 1425 1424 1423 1423 1422 1421 1420 1419 1418 1418 1417 1417 1417 1417 1417 1417 1416 1415 1414 1414 1413 1412 1412 1411 1411 1411 1411 1411 1412 1411 1411 1411 1411 1411 1411 1411 1411 1412 1412 1412 1413 1413 1414 1414 1415 1415 1416 1417 1417 1418 1418 1418 1418 1419